Regional Weather Roundup
Issued by NWS

Home | Current Version | Previous Version | Graphics & Text | Print | Product List | Glossary On
Versions: 1 2 3 4 5 6 7 8 9 10 11 12 13 14 15 16 17 18 19 20 21 22 23 24 25 26 27 28 29 30 31 32 33 34 35 36 37 38 39 40 41 42 43 44 45 46 47 48 49 50
819
ASUS43 KIND 050559
RWRIN

WEATHER ROUNDUP FOR INDIANA
NATIONAL WEATHER SERVICE INDIANAPOLIS IN
100 AM EST MON DEC 05 2016

NOTE: "FAIR" INDICATES FEW OR NO CLOUDS BELOW 12,000 FEET WITH NO
SIGNIFICANT WEATHER AND/OR OBSTRUCTIONS TO VISIBILITY.

* - STATION DOES NOT REPORT WEATHER SUCH AS PRECIPITATION OR FOG.

+ - STATION NOT QUALITY CONTROLLED BY THE NATIONAL WEATHER SERVICE.
    USE DATA WITH CAUTION...ESPECIALLY DEWPOINT AND RELATIVE
    HUMIDITY OBSERVATIONS.

INZ001>003-010>013-019-020-050700-
NORTHWEST INDIANA

CITY           SKY/WX    TMP DP  RH WIND       PRES   REMARKS

$$

LMZ046-743>745-050700-
SOUTHERN LAKE MICHIGAN

STATION/POSITION TIME  TEMP    WIND        PRES    WAVE
                       AIR SEA DIR/SP/G            HT
                 (UTC) (F)     (DEG/KT/KT) (MB)    (FT)
BURNS HARBOR     0540   35     230/ 15/ 20 1014.2R

$$

INZ004-005-014>016-021>024-050700-
NORTH CENTRAL INDIANA

CITY           SKY/WX    TMP DP  RH WIND       PRES   REMARKS
GOSHEN         CLOUDY    34  30  85 W16       29.91R WCI  24
6HR MIN TEMP:  33; 6HR MAX TEMP:  34; 6HR PCP:  0.02;

SOUTH BEND     CLOUDY    32  32 100 SW14      29.91R WCI  22
6HR MIN TEMP:  31; 6HR MAX TEMP:  32; 6HR PCP:  0.06;


$$

INZ006>009-017-018-025>027-050700-
NORTHEAST INDIANA

CITY           SKY/WX    TMP DP  RH WIND       PRES   REMARKS
ANGOLA *+      CLOUDY    34  32  93 W8        29.87R WCI  27
FORT WAYNE     CLOUDY    33  31  92 W14G24    29.92R WCI  23
6HR MIN TEMP:  33; 6HR MAX TEMP:  34; 6HR PCP:  0.06;

KENDALLVILLE + CLOUDY    33  32  96 W10       29.89R WCI  25

$$

INZ028-029-035-036-043>045-051>053-050700-
WEST CENTRAL INDIANA

CITY           SKY/WX    TMP DP  RH WIND       PRES   REMARKS
CRAWFORDSVL +  CLOUDY    32  32 100 W8        29.99R WCI  25
6HR MIN TEMP:  32; 6HR MAX TEMP:  36;

GREENCASTLE +  CLOUDY    34  34 100 W6        30.01R WCI  29
LAFAYETTE      CLOUDY    33  33 100 W8        29.97F WCI  26
6HR MIN TEMP:  31; 6HR MAX TEMP:  33;

TERRE HAUTE    CLOUDY    35  32  88 W5        30.02S WCI  31
6HR MIN TEMP:  34; 6HR MAX TEMP:  40;


$$

INZ030>032-037>040-046>048-054>057-064-065-050700-
CENTRAL INDIANA

CITY           SKY/WX    TMP DP  RH WIND       PRES   REMARKS
GREENWOOD *+   CLOUDY    36  33  88 W8        30.00R
6HR MIN TEMP:  36; 6HR MAX TEMP:  41;

INDIANAPOLIS   CLOUDY    35  32  88 W12       30.00R WCI  27
6HR MIN TEMP:  35; 6HR MAX TEMP:  40; 6HR PCP:  0.02;

-EAGLE CREEK   CLOUDY    36  31  82 W10       29.98R
6HR MIN TEMP:  36; 6HR MAX TEMP:  41; 6HR PCP:  0.01;

KOKOMO +       CLOUDY    33  32  96 W15       29.96R WCI  23
6HR MIN TEMP:  33; 6HR MAX TEMP:  35; 6HR PCP:  0.04;

SHELBYVILLE    CLOUDY    37  31  78 W16G22    29.99R
6HR MIN TEMP:  37; 6HR MAX TEMP:  42; 6HR PCP:  0.01;


$$

INZ033-034-041-042-049-050-058-059-050700-
EAST CENTRAL INDIANA

CITY           SKY/WX    TMP DP  RH WIND       PRES   REMARKS
MUNCIE         CLOUDY    35  31  85 W16       29.95R WCI  25
6HR MIN TEMP:  35; 6HR MAX TEMP:  40; 6HR PCP:  0.01;


$$

INZ060-061-067>069-081>083-085>088-050700-
SOUTHWEST INDIANA

CITY           SKY/WX    TMP DP  RH WIND       PRES   REMARKS
EVANSVILLE     CLOUDY    40  34  79 W6        30.06F
6HR MIN TEMP:  40; 6HR MAX TEMP:  44;

HUNTINGBURG *+ CLOUDY    37  34  87 W7        30.04F
6HR MIN TEMP:  37; 6HR MAX TEMP:  45; 6HR PCP: TRACE;


$$

INZ062-063-066-070>080-084-089>092-050700-
SOUTH CENTRAL AND SOUTHEAST INDIANA

CITY           SKY/WX    TMP DP  RH WIND       PRES   REMARKS
BLOOMINGTON    CLOUDY    36  30  79 NW8       30.01R
6HR MIN TEMP:  36; 6HR MAX TEMP:  42; 6HR PCP: TRACE;

MADISON *+     CLOUDY    39  36  87 W7        30.02F
SEYMOUR +      CLOUDY    39  34  81 W9        30.02R

$$





USA.gov is the U.S. government's official web portal to all federal, state and local government web resources and services.